This demonstration page uses our WeatherBlox Daily Observations layout. Learn more.

Left ArrowRight Arrow

39.92423, -83.80882

Hourly Observations for July 19, 2019

Temp ( °F °C ) Dew Point ( °F °C ) Humidity (%) Winds ( mph kmh ) Pressure ( in mb ) Visibility ( mi km ) Precip ( " mm )
12:56 am 00:56 Clear 76 24.4 73 22.8 91 91 SSW 9 15 29.93 1014 10 16.0934 N/A
1:56 am 01:56 Clear 74 23.3 74 23.3 100 100 SW 9 15 29.95 1014 10 16.0934 N/A
2:56 am 02:56 Clear 73 22.8 73 22.8 100 100 SW 6 9 29.94 1014 10 16.0934 N/A
3:56 am 03:56 Clear 73 22.8 73 22.8 100 100 SW 8 13 29.93 1014 9 14.48406 N/A
4:56 am 04:56 Mostly Clear 74 23.3 74 23.3 100 100 SW 6 9 29.94 1014 7 11.26538 N/A
5:19 am 05:19 Mostly Cloudy with Mist and Fog 73 23 73 23 100 100 SW 7 11 29.93 1014 6 9.65604 N/A
5:47 am 05:47 Cloudy with Mist and Fog 73 23 73 23 100 100 SW 7 11 29.94 1014 6 9.65604 N/A
5:56 am 05:56 Cloudy with Mist and Fog 74 23.3 74 23.3 100 100 SW 7 11 29.96 1014 6 9.65604 N/A
6:56 am 06:56 Cloudy with Mist and Fog 75 23.9 75 23.9 100 100 SSW 6 9 29.96 1015 4 6.43736 N/A
7:56 am 07:56 Cloudy with Mist and Fog 76 24.4 76 24.4 100 100 SW 7 11 29.97 1015 4 6.43736 N/A
8:56 am 08:56 Cloudy with Mist and Fog 79 26.1 78 25.6 97 97 WSW 8 13 29.98 1015 5 8.0467 N/A
9:56 am 09:56 Mostly Cloudy 83 28.3 80 26.7 91 91 WSW 12 19 29.99 1016 9 14.48406 N/A
10:30 am 10:30 Mostly Cloudy 84 29 81 27 89 89 WSW 10 17 29.95 1014 10 16.0934 N/A
10:56 am 10:56 Mostly Cloudy 84 28.9 80 26.7 88 88 W 12 19 29.98 1015 8 12.87472 N/A
11:25 am 11:25 Partly Cloudy 84 29 81 27 89 89 WSW 12 19 29.94 1014 10 16.0934 N/A
11:56 am 11:56 Partly Cloudy 86 30 79 26.1 80 80 SW 13 20 29.97 1015 10 16.0934 N/A
12:52 pm 12:52 Mostly Cloudy 86 30 79 26 79 79 SSW 12 19 29.93 1013 10 16.0934 N/A
12:56 pm 12:56 Mostly Cloudy 87 30.6 80 26.7 80 80 SW 10 17 29.96 1015 10 16.0934 N/A
1:41 pm 13:41 Partly Cloudy 88 31 81 27 79 79 SW 12 19 29.91 1013 10 16.0934 N/A
1:56 pm 13:56 Partly Cloudy 88 31.1 79 26.1 75 75 SSW 9 15 29.95 1014 10 16.0934 N/A
2:56 pm 14:56 Partly Cloudy 89 31.7 78 25.6 70 70 SSW 14 22 29.95 1014 10 16.0934 N/A
3:56 pm 15:56 Partly Cloudy 90 32.2 77 25 66 66 SW 12 19 29.95 1014 10 16.0934 N/A
4:56 pm 16:56 Mostly Cloudy 90 32.2 78 25.6 68 68 SW 12 19 29.94 1014 10 16.0934 N/A
5:56 pm 17:56 Partly Cloudy 89 31.7 77 25 68 68 SW 13 20 29.94 1014 10 16.0934 N/A
6:56 pm 18:56 Partly Cloudy 88 31.1 77 25 70 70 SW 8 13 29.93 1014 10 16.0934 N/A
7:56 pm 19:56 Sunny 86 30 77 25 75 75 SW 7 11 29.93 1014 10 16.0934 N/A
8:56 pm 20:56 Sunny 83 28.3 77 25 82 82 SW 3 6 29.93 1014 10 16.0934 N/A
9:56 pm 21:56 Clear 80 26.7 76 24.4 87 87 N N/A 29.96 1014 10 16.0934 N/A
10:56 pm 22:56 Clear 78 25.6 76 24.4 93 93 SW 5 7 29.97 1015 10 16.0934 N/A
11:56 pm 23:56 Clear 78 25.6 76 24.4 93 93 SW 5 7 29.98 1015 10 16.0934 N/A

Powered by AerisWeather